Location: Allentsteig
(48.6833°N, 15.3167°E)
Time: 17:00:17
(UTC+00:00)

CENTAUR R/B - Pass Details

Date: 18 September 2020
Orbit: 753 x 1435 km, 63.5° (Epoch: 26 October)

Event Time Altitude Azimuth Distance (km) Brightness Sun altitude
Rises 17:33:28 0° 312° (NW) 3,963 6.7 -5.6°
Reaches altitude 10° 17:36:15 10° 321° (NW) 3,101 5.9 -6.1°
Maximum altitude 17:43:19 39° 29° (NNE) 1,852 3.8 -7.2°
Drops below altitude 10° 17:51:14 10° 96° (E) 3,480 4.7 -8.5°
Enters shadow 17:51:21 10° 96° (E) 3,514 4.7 -8.5°
